Regional Weather Roundup
Issued by NWS Cleveland, OH

Home | Current Version | Previous Version | Text Only | Print | Product List | Glossary Off
Versions: 1 2 3 4 5 6 7 8 9 10 11 12 13 14 15 16 17 18 19 20 21 22 23 24 25 26 27 28 29 30 31 32 33 34 35 36 37 38 39 40 41 42 43 44 45 46 47 48 49 50

000
ASUS41 KCLE 210310
RWRCLE
OHIO REGIONAL WEATHER ROUNDUP
NATIONAL WEATHER SERVICE CLEVELAND, OH
1100 PM EDT MON APR 20 2015

NOTE: "FAIR" INDICATES FEW OR NO CLOUDS BELOW 12,000 FEET WITH NO
SIGNIFICANT WEATHER AND/OR OBSTRUCTIONS TO VISIBILITY.

OHZ001>008-015>018-024>027-034-035-043-044-210400-
   NORTHWEST OHIO

CITY           SKY/WX    TMP DP  RH WIND       PRES   REMARKS
DEFIANCE       CLOUDY    48  33  56 W13G26    29.64R
FINDLAY        CLOUDY    47  36  65 SW18G28   29.64R
TOLEDO EXPRESS MOCLDY    48  35  60 SW15      29.60R
TOLEDO EXEC    PTCLDY    48  35  60 SW16      29.62R
LIMA           CLOUDY    48  36  63 W23G31    29.67R
$$

OHZ009>014-019>023-028>033-038-089-210400-
   NORTHEAST OHIO

CITY           SKY/WX    TMP DP  RH WIND       PRES   REMARKS
CLE-HOPKINS    PTCLDY    48  36  63 W20G25    29.64R
CLE-LAKEFRONT  LGT RAIN  50  39  66 SW18G28   29.61R
CUY CO. ARPT   MOCLDY    52  41  66 W14G23    29.62R
LORAIN-ELYRIA  CLEAR     47  38  71 W17G24    29.63R
ASHTABULA      MOCLDY    50  39  66 W21G30    29.60R
AKRON-CANTON   PTCLDY    49  37  63 W12G24    29.65R
WOOSTER        LGT RAIN  47  38  71 W16       29.65R
MANSFIELD      CLEAR     45  37  73 W10       29.65R
YOUNGSTOWN     CLOUDY    51  38  60 W21G29    29.60R
$$

OHZ042-051>053-060>062-070>072-077>081-210400-
  SOUTHWEST OHIO

CITY           SKY/WX    TMP DP  RH WIND       PRES   REMARKS
CINC-COVINGTON PTCLDY    48  34  58 W9        29.77R
CINC-LUNKEN    MOCLDY    50  36  58 W12       29.78R
HAMILTON       PTCLDY    50  34  54 W12G25    29.77R
DAYTON         MOCLDY    48  37  65 W17       29.73R
WRIGHT-PAT AFB PTCLDY    49  36  61 W17G25    29.72R
DAYTON GENERAL MOCLDY    49  34  56 W15G25    29.74R
WILMINGTON     CLOUDY    49  34  56 W16       29.74R
$$

OHZ036-037-039>041-045>050-054>059-063>069-073>076-082>088-210400-
  CENTRAL AND SOUTHEAST OHIO

CITY           SKY/WX    TMP DP  RH WIND       PRES   REMARKS
COLUMBUS       PTCLDY    49  37  63 W14G24    29.70R
OSU AIRPORT    CLEAR     47  36  65 W10       29.70R
BOLTON FIELD   PTCLDY    47  37  67 W7        29.71R
RICKENBACK AFB PTCLDY    49  37  61 W12       29.71R
NEWARK         CLOUDY    50  37  61 W9        29.69R
MARION         CLEAR     46  37  71 W8        29.67S
LANCASTER      CLOUDY    51  38  60 W8        29.71R
ZANESVILLE     CLOUDY    51  37  58 W10       29.68R
NEW PHILLY     MOCLDY    53  36  52 W12G21    29.67R
$$



USA.gov is the U.S. government's official web portal to all federal, state and local government web resources and services.